Theta_e
312 315 315 316 314 314 316 316 318 317 315 315 314 316 316 317 317 315 316 315 316 316 316 318 318 318 318 316 316 316 317 317 316 317 319 318 319 319 318 318 318 318 320
311 312 313 314 313 315 314 315 317 316 316 315 316 316 315 316 316 315 315 316 316 316 316 317 317 317 316 316 317 317 318 318 318 316 317 313 316 316 319 319 319 320 321
312 311 313 313 313 315 315 315 317 317 315 316 314 316 316 316 316 316 315 315 315 316 316 316 314 316 317 316 317 317 318 317 315 315 315 314 314 312 319 320 319 319 319
312 312 312 313 313 315 315 315 317 316 313 312 313 315 316 316 316 316 314 315 315 315 316 314 313 314 316 316 317 317 316 315 315 316 316 318 314 317 319 319 319 319 319
313 313 314 314 313 313 314 314 316 315 313 312 312 313 316 316 316 315 314 316 316 315 316 316 314 313 313 317 316 316 315 314 314 316 316 318 319 319 318 318 318 317 317
313 313 313 313 312 313 314 314 315 315 314 314 315 315 315 316 316 315 314 316 315 315 316 315 315 316 312 314 315 315 316 316 315 315 315 315 317 318 319 319 318 316 312
310 309 310 312 309 311 313 314 314 315 314 316 315 316 316 315 316 315 314 313 316 315 316 315 315 316 315 315 314 316 317 317 318 318 316 316 317 317 318 318 313 311 311
307 309 309 310 310 310 312 313 311 311 312 313 314 316 316 316 314 311 310 310 313 313 316 316 314 311 310 312 316 316 317 318 318 318 318 319 319 318 318 318 314 311 315
306 308 306 308 310 309 312 312 313 312 311 313 315 316 316 315 316 311 311 309 311 313 314 314 315 315 311 310 316 317 312 311 313 318 318 319 319 319 318 317 317 317 318
307 307 307 308 308 310 310 311 312 313 313 314 314 316 317 317 316 313 312 308 312 314 314 315 315 315 314 309 314 316 315 312 312 310 309 313 318 316 319 319 318 318 317
306 306 307 307 309 309 309 310 311 313 313 313 314 315 316 317 314 313 311 310 312 314 313 314 313 311 311 310 315 312 311 313 310 316 317 313 307 309 313 314 316 316 316
305 306 306 307 306 306 308 309 311 312 312 310 313 314 315 315 316 315 313 310 310 315 315 315 316 313 310 310 312 310 309 306 311 311 311 316 316 313 307 311 313 315 315
305 306 305 304 305 305 305 308 308 311 311 312 312 313 315 316 315 316 316 312 311 312 314 315 315 313 310 310 310 310 310 310 310 312 313 315 313 315 313 312 314 315 314
305 305 305 303 303 304 306 307 307 309 309 311 310 310 311 317 315 316 316 314 313 314 313 314 313 310 310 309 309 309 310 310 309 310 311 313 316 316 317 315 316 313 314
306 305 304 302 304 304 305 307 308 308 308 308 308 309 310 313 314 316 315 315 317 315 314 312 310 310 309 309 309 309 309 310 309 310 312 312 317 316 315 316 315 314 314
304 304 305 303 302 304 304 305 307 309 309 308 307 307 308 310 314 315 315 314 313 314 314 313 312 311 311 312 312 310 310 311 312 310 311 311 312 313 314 314 314 312 314
304 303 304 302 302 303 302 304 306 308 308 309 308 306 306 306 313 314 313 313 315 314 311 315 316 316 315 316 315 315 313 310 311 312 313 312 313 313 313 315 315 312 312
303 302 302 302 302 302 302 302 304 307 307 307 307 308 305 306 309 314 314 313 314 314 312 314 314 314 316 316 316 316 315 313 312 312 313 311 311 311 312 312 313 314 314
302 302 302 301 302 302 301 301 302 303 304 305 308 309 305 305 309 312 313 313 313 314 315 313 312 313 315 315 316 315 315 314 314 313 311 310 310 310 311 311 311 311 313
303 303 302 301 302 302 301 301 301 302 302 303 304 305 305 305 306 307 310 313 313 314 315 316 316 315 314 314 314 315 316 313 313 312 312 311 311 312 311 311 311 310 311
304 303 302 303 302 301 301 301 301 301 302 302 303 304 304 304 306 307 308 310 314 315 316 316 316 316 316 314 314 316 316 315 314 314 313 312 311 310 310 312 313 311 313
305 305 303 303 302 302 301 301 302 302 302 302 303 303 303 304 305 306 306 307 310 311 313 315 316 317 317 315 316 316 316 315 314 314 314 312 312 311 311 311 312 313 313
304 304 303 303 303 303 302 302 302 303 303 303 303 303 303 303 304 304 305 306 307 308 310 313 313 315 315 316 315 316 316 315 315 313 314 314 315 313 313 312 312 312 312
304 304 304 304 304 304 304 303 303 302 302 303 303 303 303 304 304 304 304 304 305 305 307 308 311 313 314 315 315 315 315 315 315 315 314 314 314 315 314 313 313 313 313
305 306 305 305 306 305 304 304 303 303 303 303 304 303 303 303 304 304 304 304 304 305 306 307 309 310 311 311 312 312 313 313 312 313 315 314 314 313 314 314 313 313 314
304 306 306 306 305 305 305 305 305 305 304 304 304 304 305 304 304 302 302 303 305 305 306 306 307 308 309 310 311 310 310 310 313 313 313 314 314 314 314 314 314 313 313
Wind_Speed
16 12 13 13 14 17 19 22 20 18 17 19 16 13 17 13 12 13 13 9 11 9 10 8 11 7 4 6 3 5 9 13 7 6 3 5 8 8 11 13 14 15 15
17 17 17 16 20 17 20 21 22 20 21 19 15 17 16 15 13 12 9 8 6 6 7 6 9 7 5 4 4 4 5 2 4 3 2 8 14 10 8 19 20 25 27
12 19 23 20 21 23 22 25 18 17 16 15 13 14 16 16 13 11 10 6 4 4 5 5 7 8 7 4 4 5 5 5 5 4 2 3 15 8 21 27 25 23 23
20 24 19 23 21 23 27 24 16 12 11 14 15 14 16 17 16 10 12 5 3 2 5 2 7 8 7 4 6 7 10 10 13 13 13 11 26 15 31 28 24 25 24
20 19 20 18 22 25 27 20 14 13 13 11 14 14 17 18 11 9 9 8 2 3 4 0 5 7 8 6 6 9 12 11 13 15 13 20 21 23 24 20 22 25 20
20 21 17 18 22 26 25 21 17 13 14 13 13 13 16 20 16 9 12 8 6 6 1 1 7 2 7 7 10 10 10 9 10 15 11 7 12 17 19 20 25 22 6
18 22 20 14 24 25 25 20 15 13 15 13 12 12 14 12 10 16 14 9 7 4 1 2 6 8 3 6 6 5 6 3 6 11 15 15 16 19 21 16 22 27 13
22 24 24 23 23 24 21 19 12 12 14 15 11 8 10 12 13 16 13 11 8 5 3 3 4 5 4 5 4 5 8 12 10 11 13 14 10 14 17 20 24 21 10
23 22 27 28 21 24 20 23 17 15 11 11 16 12 11 12 17 18 13 11 9 9 4 7 7 6 3 3 4 10 7 10 11 12 11 11 12 11 15 17 17 15 8
24 26 25 24 24 20 21 22 19 15 13 16 11 9 10 14 18 21 15 12 10 10 5 3 8 8 4 3 5 6 9 10 8 8 8 9 10 12 13 12 6 8 8
23 24 23 25 21 19 21 22 22 11 9 15 10 11 5 6 17 19 15 13 12 7 7 6 6 6 5 4 6 8 10 8 5 4 5 6 6 9 10 8 8 6 6
22 23 23 23 22 24 21 20 22 12 8 10 10 5 7 9 10 12 17 16 12 4 2 7 10 13 10 8 5 5 3 2 3 0 4 8 7 7 10 10 8 7 6
21 22 20 22 23 23 22 18 17 18 11 8 10 11 15 7 8 9 15 19 15 11 8 6 7 18 13 12 9 7 5 3 3 4 10 14 17 13 11 10 7 5 7
20 20 18 21 23 25 24 17 11 16 13 9 10 14 13 1 8 8 10 16 11 8 8 6 12 17 14 12 12 12 10 9 9 9 11 11 14 17 22 19 15 11 9
18 17 16 19 18 22 21 20 11 11 6 7 9 8 15 9 5 10 12 11 10 6 10 11 13 14 13 14 13 13 13 13 13 12 10 3 15 21 21 21 18 15 13
16 17 13 14 18 18 19 25 12 7 5 6 8 8 9 10 2 5 9 5 4 5 15 18 18 17 16 16 16 17 18 18 16 14 10 9 7 9 18 22 24 23 23
10 16 11 12 15 16 20 19 16 7 8 9 5 6 7 11 3 6 8 11 6 5 8 21 20 18 21 21 22 25 27 26 23 22 21 17 12 12 12 11 22 26 24
10 15 16 12 13 12 15 18 18 8 9 14 9 3 7 9 6 6 7 7 7 8 12 13 15 13 17 24 18 8 13 29 27 25 23 18 15 13 13 12 10 14 21
10 13 13 11 11 9 10 15 17 18 15 17 9 2 9 11 7 3 8 11 14 15 13 14 18 17 6 8 6 5 3 7 17 22 17 14 15 13 12 12 12 12 13
11 10 13 11 9 2 7 8 10 15 15 15 12 8 14 14 12 8 3 9 12 13 11 5 5 7 9 10 10 9 11 8 8 8 9 11 13 12 14 16 15 16 18
11 9 7 5 2 6 7 8 7 7 12 15 12 12 13 14 11 10 12 8 5 8 8 8 8 8 9 10 13 11 13 13 12 14 13 15 15 15 18 17 18 18 19
13 14 7 5 4 5 6 5 6 8 8 9 10 9 11 10 10 11 10 10 9 6 5 5 6 8 8 5 3 8 9 7 4 7 16 22 19 18 18 20 20 20 18
11 11 8 9 8 11 9 7 8 7 7 8 8 8 8 9 10 10 10 8 7 8 8 4 6 7 8 4 3 9 8 5 5 6 7 6 6 14 20 29 26 20 20
10 10 9 10 12 12 13 15 11 10 12 12 7 7 8 9 9 11 11 10 10 8 6 8 3 4 4 3 1 3 4 3 6 7 8 9 7 10 12 4 4 7 7
11 9 12 13 15 13 14 13 17 17 14 12 14 14 10 10 12 12 11 11 9 7 6 7 7 5 4 6 6 8 7 10 14 13 12 16 18 12 11 13 11 12 22
13 14 15 14 15 16 16 19 19 19 18 16 12 15 14 12 11 10 9 8 7 5 5 7 7 8 5 5 7 9 11 11 11 13 16 13 14 21 18 14 11 11 22
Wind_Direction
12 25 345 346 354 336 303 282 270 269 260 270 261 268 272 276 271 265 265 278 292 313 326 321 334 342 316 352 319 279 262 252 241 274 27 99 131 154 177 191 194 190 190
357 351 358 344 339 327 330 314 272 253 252 263 268 267 272 270 271 262 255 258 290 317 339 345 357 3 354 341 351 320 320 310 214 173 146 102 83 93 157 159 160 155 141
9 356 339 341 342 330 327 329 288 253 245 244 257 266 272 278 257 268 249 228 281 360 10 347 356 359 11 351 22 18 35 91 94 110 158 145 104 132 156 140 143 136 136
342 334 341 338 346 335 335 331 294 260 254 266 265 255 284 265 263 272 205 212 279 5 36 341 24 28 35 37 84 68 117 104 84 61 55 110 146 170 124 128 127 138 136
340 339 342 347 352 342 340 336 299 283 270 278 273 248 280 265 245 239 194 208 196 143 53 304 15 26 32 33 88 110 129 105 106 72 45 77 104 117 125 133 135 146 148
350 351 348 350 356 353 348 336 335 286 295 305 299 275 242 254 244 229 190 199 181 174 180 32 60 18 40 49 93 121 140 124 129 117 124 108 119 137 142 140 147 153 143
360 352 346 352 352 351 349 339 347 357 349 332 287 261 247 231 232 188 184 185 182 194 143 90 88 114 37 70 77 107 102 178 186 191 172 168 161 161 161 158 163 166 164
354 350 349 344 348 347 349 342 336 337 325 327 301 275 249 231 206 195 193 200 211 204 201 188 145 113 87 74 124 149 94 98 101 127 145 150 147 176 189 183 178 179 176
357 357 347 354 343 345 349 349 331 316 315 315 307 290 265 231 211 206 199 207 223 215 208 218 220 201 132 67 110 173 137 102 99 105 128 127 140 144 155 163 175 186 204
349 345 343 348 345 342 349 353 345 329 316 311 286 311 262 223 215 202 202 202 208 232 238 302 186 207 195 101 68 132 146 127 113 117 124 138 143 144 156 167 119 189 219
346 349 353 352 345 350 347 356 360 357 21 351 311 313 300 208 194 198 204 204 211 248 233 236 226 213 189 151 119 111 119 137 151 156 143 141 169 188 187 155 105 92 165
350 349 353 352 358 352 352 351 13 15 26 19 359 321 327 224 212 206 223 217 218 224 226 275 243 210 189 184 159 138 133 184 177 74 242 231 207 189 190 184 153 130 111
347 347 359 3 357 353 343 343 2 13 355 16 13 26 9 258 206 223 232 220 221 234 267 301 223 195 194 199 204 204 217 253 281 305 346 255 228 210 182 182 181 186 187
344 343 349 357 358 358 0 344 356 4 353 24 31 21 10 354 244 235 216 206 217 232 226 243 181 184 201 217 224 228 233 254 275 286 300 327 213 209 206 200 201 204 204
344 341 346 348 353 358 358 0 338 351 354 17 34 24 9 353 129 149 132 148 167 175 205 194 190 199 209 225 228 230 231 235 244 250 272 252 178 175 180 194 211 212 226
350 347 336 342 0 358 357 2 9 32 9 8 17 15 360 347 1 159 200 180 135 171 195 213 224 222 226 235 241 245 237 235 234 224 225 255 264 212 218 209 214 217 222
349 359 351 356 1 360 -0 357 355 22 43 16 355 11 16 2 272 211 225 205 235 196 228 221 231 239 240 238 246 249 237 238 234 233 234 229 233 257 269 269 237 226 229
356 350 348 347 354 0 356 353 356 355 15 336 337 30 28 352 345 228 236 216 235 249 251 222 243 260 263 255 256 235 260 234 231 233 223 221 223 241 260 269 267 235 228
357 332 332 349 340 353 10 354 354 358 359 347 3 185 12 13 13 203 217 228 243 254 254 252 257 268 289 336 323 293 13 146 213 219 218 231 232 232 244 260 272 276 286
328 318 329 328 348 66 13 3 348 343 347 347 2 16 8 4 13 9 336 256 255 261 264 281 287 257 276 295 317 338 297 263 217 219 241 258 241 236 242 254 258 268 276
312 313 335 341 353 356 6 0 350 334 331 329 341 352 355 344 342 6 19 16 310 306 300 274 277 299 300 287 286 337 350 288 264 240 253 258 251 250 247 259 265 265 272
304 307 292 4 253 318 308 323 332 310 311 316 319 326 332 345 343 356 357 11 23 17 36 9 330 328 313 280 291 333 335 40 7 11 246 244 244 245 250 249 253 264 261
289 289 305 316 307 292 272 288 283 265 289 305 307 296 297 308 312 315 319 316 325 324 319 354 358 346 346 258 246 278 300 349 347 21 22 329 321 264 261 258 247 250 254
262 269 290 286 289 292 307 278 274 277 272 267 277 281 280 289 285 288 289 286 286 273 289 292 328 351 3 88 145 252 246 272 293 321 330 331 349 7 320 331 216 296 311
249 260 284 276 271 279 278 285 265 265 268 262 257 249 269 264 267 275 280 278 284 285 278 290 268 268 306 297 320 309 311 277 272 282 291 300 284 291 323 313 278 302 342
263 257 268 267 268 263 265 273 275 263 255 260 274 263 260 262 276 274 269 272 272 259 278 287 278 272 252 275 284 286 298 291 283 264 266 280 282 259 281 284 286 284 279